sat.trackr.live / text

‹ back to catalog

PHI 1

NORAD 66775 · 2025-276DP

PAYLOAD ACTIVE UNKNOWN

§ Identity

Operator
Country
TBD
Launch date
2025-11-28
Launch site
AFWTR
Launch vehicle
Mass (kg)
RCS (m²)

External: N2YO · Heavens-Above · Gunter

§ Orbital elements

Epoch: 2026-09-20T10:31:36.352416Z

Period
94.59 min
Inclination
97.4050°
Eccentricity
0.0002280
Mean motion
15.22292072 rev/d
Perigee alt
497.4 km
Apogee alt
500.5 km
Semi-major
6,877.1 km
B*
1.7846e-4
RAAN
335.7689°
Arg perigee
136.0667°
Mean anomaly
224.0751°
Rev number
4,493

§ Raw data

PHI 11 66775U 25276DP  26263.43861519  .00004040  00000+0  17846-3 0  99952 66775  97.4050 335.7689 0002280 136.0667 224.0751 15.22292072 44933

JSON: /api/v1/satellites/66775 · /tle

For live sub-satellite position, see the globe view (requires WebGL).

§ Visibility from observer

Set your observer location to see the next 7 days of passes ≥ 10°. The values pass through the URL so the page stays shareable.

No JS? Fill the form by hand. The geolocation button needs JavaScript.